Regional Weather Roundup
Issued by NWS

Home | Current Version | Previous Version | Text Only | Print | Product List | Glossary Off
Versions: 1 2 3 4 5 6 7 8 9 10 11 12 13 14 15 16 17 18 19 20 21 22 23 24 25 26 27 28 29 30 31 32 33 34 35 36 37 38 39 40 41 42 43 44 45 46 47 48 49 50

000
ASUS43 KLOT 231610
RWRIL

ILLINOIS REGIONAL WEATHER ROUNDUP
NATIONAL WEATHER SERVICE CHICAGO/ROMEOVILLE IL
1100 AM CDT TUE SEP 23 2014

NOTE: "FAIR" INDICATES FEW OR NO CLOUDS BELOW 12,000 FEET WITH NO
SIGNIFICANT WEATHER AND/OR OBSTRUCTIONS TO VISIBILITY.

* THESE STATIONS ARE NOT UNDER NWS QUALITY CONTROL. THEY ALSO MAY NOT
  REPORT WEATHER SUCH AS PRECIPITATION OR FOG.

ILZ001-002-007-009-015-016-024-231700-
NORTHWEST ILLINOIS

CITY           SKY/WX    TMP DP  RH WIND       PRES   REMARKS
MOLINE         SUNNY     68  48  48 SW8       30.34R
STERLING*      SUNNY     70  48  46 S6        30.34F
SAVANNA*       SUNNY     65  49  56 SW5       30.34S
$$

ILZ003-004-008-010-011-017-018-231700-
NORTH CENTRAL ILLINOIS

CITY           SKY/WX    TMP DP  RH WIND       PRES   REMARKS
ROCKFORD       MOSUNNY   67  48  50 SW8       30.36S
ROCHELLE*      SUNNY     67  47  48 SW5       30.35S
DE KALB*       SUNNY     65  49  56 SW6       30.36S
PERU*          SUNNY     66  48  52 SW5       30.36S
$$

ILZ005-006-012>014-019>023-231700-
NORTHEAST ILLINOIS

CITY           SKY/WX    TMP DP  RH WIND       PRES   REMARKS
CHICAGO-OHARE  SUNNY     62  45  53 SW7       30.34S
CHICAGO-MIDWAY MOSUNNY   67  47  48 SW8       30.35S
AURORA         SUNNY     66  49  54 VRB5      30.36S
LANSING*       SUNNY     65  48  53 W6        30.36S
JOLIET*        SUNNY     65  47  52 CALM      30.37R
WAUKEGAN       SUNNY     66  48  52 VRB6      30.33S
DUPAGE AIRPORT SUNNY     66  48  52 SW7       30.35S
KANKAKEE*      SUNNY     67  50  54 S5        30.37S
WHEELING       SUNNY     68  46  45 VRB3      30.35S
MORRIS*        SUNNY     67  50  54 SW6       30.36R
ROMEOVILLE*    SUNNY     65  47  51 SW3       30.36S
NORTHERLY ISL    N/A     66  44  45 S7          N/A
$$

LMZ740>746-231700-
SOUTHERN LAKE MICHIGAN

STATION/POSITION SKY/WX   TEMP    WIND        PRES    VSBY  WAVE
                          AIR SEA DIR/SP/G                  HT/PER
                          (F)     (DEG/KT/KT) (MB)    (MI)  (FT/S)
SOUTHERN BUOY              61 61  230/ 10/ 12 1027.6R         2/ 4
WAUKEGAN HARBOR            64     280/  9/ 12   N/A
BURNHAM HARBOR             67     260/  6/ 11   N/A
CALUMET HARBOR             64     200/  5/  8 1026.4R
MICHIGAN CITY 6N           61 63  220/  6/  8   N/A           1/ 3
ST. JOSEPH                 60 65  210/  8/ 10   N/A           1/ 3
$$

ILZ025>027-034>036-040-047-049-050-058-095>099-231700-
WEST-CENTRAL ILLINOIS

CITY           SKY/WX    TMP DP  RH WIND       PRES   REMARKS
QUINCY         SUNNY     67  48  50 S12       30.33R
GALESBURG*     SUNNY    N/A N/A N/A S8        30.35R
MACOMB*        SUNNY     68  46  44 S6        30.35S
JACKSONVILLE*  SUNNY     70  47  44 S7        30.35R
PITTSFIELD*    SUNNY     69  48  47 S7        30.35S HAZE
$$

ILZ028>032-037-038-041>044-048-051>054-059>061-231700-
CENTRAL ILLINOIS

CITY           SKY/WX    TMP DP  RH WIND       PRES   REMARKS
PONTIAC        SUNNY     70  46  43 S5        30.36S
BLOOMINGTON    SUNNY     67  49  52 S8        30.37S
DECATUR        SUNNY     67  48  50 VRB3      30.36S
PEORIA         SUNNY     67  49  52 S7        30.35S
LACON*         SUNNY     65  49  54 S5        30.35S
LINCOLN*       SUNNY     69  47  45 S7        30.33F
SPRINGFIELD    SUNNY     68  49  50 SE7       30.35S
TAYLORVILLE    SUNNY     66  46  48 SE6       30.35F
$$

ILZ033-039-045-046-055>057-062-063-231700-
EAST-CENTRAL ILLINOIS

CITY           SKY/WX    TMP DP  RH WIND       PRES   REMARKS
CHAMPAIGN      SUNNY     67  47  48 VRB6      30.36S
DANVILLE*      SUNNY     66  46  49 S7        30.34S
RANTOUL*       SUNNY     68  43  40 S8        30.37S
MATTOON        SUNNY     64  48  56 SE5       30.35S
PARIS*         SUNNY     67  48  49 SE6       30.36F
$$

ILZ079-100>102-231700-
SOUTHWEST ILLINOIS

CITY           SKY/WX    TMP DP  RH WIND       PRES   REMARKS
ALTON          MOSUNNY   66  48  52 SE7       30.34R
BELLEVILLE     SUNNY     67  51  54 NE5       30.33F
CAHOKIA*       MOSUNNY   68  49  50 S8        30.33F
SPARTA*        SUNNY     66  47  50 E6        30.34F
$$

ILZ064>066-069>071-074>076-080>082-084>086-088>090-092>094-231700-
SOUTH-CENTRAL ILLINOIS

CITY           SKY/WX    TMP DP  RH WIND       PRES   REMARKS
CARBONDALE     SUNNY     66  46  48 VRB5      30.34R
CAIRO*         SUNNY     68  51  54 E5        30.32R
EFFINGHAM*     SUNNY     66  44  44 E6        30.35F
MARION         MOSUNNY   66  46  48 SE6       30.34S
MT. VERNON     SUNNY     66  48  52 E3        30.36R
CENTRALIA*     SUNNY     67  46  46 E7        30.35R
SALEM*         SUNNY     67  50  53 SE5       30.35S
METROPOLIS*    SUNNY     67  48  49 E7        30.31S
$$

ILZ067-068-072-073-078-083-087-091-231700-
SOUTHEAST ILLINOIS

CITY           SKY/WX    TMP DP  RH WIND       PRES   REMARKS
LAWRENCEVILLE  SUNNY     67  47  48 E5        30.35S
FLORA*         SUNNY     66  46  47 E6        30.35S HAZE
FAIRFIELD*     SUNNY    N/A N/A N/A E3        30.34S
HARRISBURG*    SUNNY     67  45  45 E7        30.34S
ROBINSON*      SUNNY     67  51  56 SE5       30.37S HAZE
CARMI*         SUNNY     70  48  46 NE7       30.33S
$$

ABBREVIATIONS USED IN REMARKS
   TC - TEMPERATURE IN CELSIUS
  WCI - WIND CHILL INDEX
   HX - HEAT INDEX
  VSB - VISIBILITY
$$




USA.gov is the U.S. government's official web portal to all federal, state and local government web resources and services.